Regional Weather Roundup
Issued by NWS Sterling, VA

Home | Current Version | Previous Version | Text Only | Print | Product List | Glossary Off
Versions: 1 2 3 4 5 6 7 8 9 10 11 12 13 14 15 16 17 18 19 20 21 22 23 24 25 26 27 28

000
ASUS41 KLWX 251311
RWRLWX

REGIONAL WEATHER ROUNDUP
NATIONAL WEATHER SERVICE BALTIMORE MD/WASHINGTON DC
900 AM EDT TUE JUL 25 2017

Note: "FAIR" indicates few or no clouds below 12,000 feet
with no significant weather and/or obstructions to visibility.
 TC=TEMPERATURE CELSIUS

 * =Non NWS site. Station does not report precipitation (e.g. rain,
    snow, etc.), thunder, or fog.

DCZ001-MDZ009-015-VAZ040>042-051-053>054-251400-
WASHINGTON METRO

CITY           SKY/WX    TMP DP  RH WIND       PRES   REMARKS
WASHINGTON NAT MOSUNNY   74  59  59 N15G23    30.07R
DULLES         MOSUNNY   71  56  58 NW13      30.09R
ANDREWS AFB    SUNNY     73  57  57 NW14      30.06R
FT BELVOIR     SUNNY     74  57  54 NW9       30.08R
QUANTICO       PTSUNNY   74  58  57 NW13      30.09R
COLLEGE PARK*  SUNNY     72  56  58 NW10G16   30.06R
LEESBURG*      SUNNY     72  61  68 NW17      30.10R
MANASSAS*      SUNNY     73  57  57 NW8       30.09R
GAITHERSBURG*  SUNNY     70  59  68 NW7       30.09R

$$

MDZ006>007-011-014-251400-
BALTIMORE METRO

CITY           SKY/WX    TMP DP  RH WIND       PRES   REMARKS
BWI AIRPORT    MOSUNNY   72  60  66 NW10G18   30.05R
MD SCIENCE CTR   N/A     74  58  57 MISG      30.05R
MARTIN STATE   MOSUNNY   73  63  68 NW12G17   30.06R
ANNAPOLIS      SUNNY     75  63  66 NW12      30.05R
FORT MEADE*    SUNNY     72  59  64 NW8       30.08R

$$

MDZ012-015-019>023-251400-
MARYLAND EASTERN SHORE

CITY           SKY/WX    TMP DP  RH WIND       PRES   REMARKS
OCEAN CITY     CLOUDY    74  69  85 NW12      30.01R
SALISBURY      SUNNY     73  64  73 NW14      30.01S
BAY BRIDGE AP* SUNNY     73  61  64 NW12G17   30.05R
CAMBRIDGE*     MOSUNNY   75  61  60 NW12G18   30.04R
EASTON*        MOSUNNY   75  61  60 N9        30.08R

$$

MDZ017>025-251400-
SOUTHERN MARYLAND

CITY           SKY/WX    TMP DP  RH WIND       PRES   REMARKS
PATUXENT RIVER PTSUNNY   74  59  59 N17       30.05R
ST INIGOES     SUNNY     75  60  59 VRB6      30.04R
LEONARDTOWN*   MOSUNNY   72  57  60 NW5       30.07R

$$

MDZ003>005-251400-
NORTH CENTRAL MARYLAND

CITY           SKY/WX    TMP DP  RH WIND       PRES   REMARKS
FREDERICK*     SUNNY     73  55  53 NW3       30.11R
HAGERSTOWN APT SUNNY     71  59  65 NW13      30.09R
WESTMINSTER*   PTSUNNY   70  59  68 NW5       30.08R

$$

MDZ501>502-251400-
WESTERN MARYLAND

CITY           SKY/WX    TMP DP  RH WIND       PRES   REMARKS
OAKLAND*       CLOUDY    54  52  94 NW6       30.17R
CUMBERLAND*    CLOUDY    68  55  64 W6        30.17R

$$

VAZ025>031-251400-
SHENANDOAH VALLEY

CITY           SKY/WX    TMP DP  RH WIND       PRES   REMARKS
WINCHESTER*    SUNNY     68  54  60 NW12      30.10S
FRONT ROYAL*   SUNNY     70  54  56 NW5G16    30.11R
LURAY*         MOSUNNY   70  55  60 N10       30.12R
NEW MARKET*    MOSUNNY   69  56  62 N5        30.13R
STAUNTON*      SUNNY     71  60  69 NE6       30.13S HAZE
WAYNESBORO*    MOSUNNY   70  64  79 N7        30.12R

$$

WVZ021-048>050-054>055-251400-
EASTERN WEST VIRGINIA PANHANDLE

CITY           SKY/WX    TMP DP  RH WIND       PRES   REMARKS
MARTINSBURG    SUNNY     71  56  58 N9        30.10R
PETERSBURG*    MOSUNNY   70  55  59 NE7       30.14S

$$

VAZ036>039-050-251400-
CENTRAL FOOTHILLS

CITY           SKY/WX    TMP DP  RH WIND       PRES   REMARKS
CHARLOTTESVILL MOSUNNY   74  62  66 NE7       30.09R
CULPEPER*      SUNNY     73  58  59 N13       30.11R
ORANGE*        SUNNY     70  59  68 CALM      30.09R
GORDONSVILLE*  SUNNY     72  61  67 NE6       30.09R
WARRENTON*     SUNNY     74  52  46 NW13G18   30.10R

$$

VAZ055>057-251400-
NORTH AND CENTRAL PIEDMONT

CITY           SKY/WX    TMP DP  RH WIND       PRES   REMARKS
FREDERICKSBRG* MOSUNNY   73  58  60 MISG      30.07R
STAFFORD*      SUNNY     72  57  58 N8G20     30.12R

$$

NCZ024-NYZ072-PAZ021-071-VAZ022-071-251400-
OTHER REGIONAL OBSERVATIONS

CITY           SKY/WX    TMP DP  RH WIND       PRES   REMARKS
NEW YORK CITY  CLOUDY    64  59  83 NE5       30.08R
PHILADELPHIA   CLOUDY    69  64  84 E6        30.04R
PITTSBURGH     DRIZZLE   63  58  83 NW12      30.18R
ROANOKE        MOSUNNY   77  63  61 W6        30.14R
RICHMOND       PTSUNNY   77  62  59 N10       30.06R
RALEIGH        PTSUNNY   83  71  67 VRB3      30.06S

$$

ANZ530>537-251400-
MARINE OBSERVATIONS

STATION/POSITION TIME  TEMP    WIND        PRES
                       AIR SEA DIR/SP/G
                 (UTC) (F)     (DEG/KT/KT) (MB)
THOMAS PT LIGHT  1300   71 82  340/ 14/ 17   N/A
BALT KEY BRIDGE  1248   72     320/ 14/ 18 1017.1R
COVE POINT       1248   72     350/ 20/ 23 1018.0R
LEWISETTA        1248   75 84  350/ 12/ 17 1017.3R
SOLOMONS ISLAND  1248   73 83  340/ 14/ 18   N/A
PINEY POINT      1242          350/ 16/ 18   N/A

$$





USA.gov is the U.S. government's official web portal to all federal, state and local government web resources and services.